Estación Meteorológica Peña el Pijo (Robertgarden) [ 07/15/20 06:51:57 CEST ]

Fecha Hora Presion(HPa) Temp (°C) Humedad % Rocio (°C) Viento ( m/s) Direccion Lluvia 1Hora(mm) Lluvia 24H(mm) LLuvia Total(mm)
2020-Apr-06 01:09:02 1009.400 - - - - N     39.88
2020-Apr-06 02:09:18 1009.600 - - - - N     39.88
2020-Apr-06 03:09:11 1009.600 - - - - N     39.88
2020-Apr-06 04:09:04 1009.600 - - - - N     39.88
2020-Apr-06 05:09:12 1009.300 - - - - N     39.88
2020-Apr-06 06:09:32 1009.200 - - - - SSW     39.88
2020-Apr-06 07:10:02 1009.700 - - - - SSW     39.88
2020-Apr-06 08:09:28 1010.000 - - - - SSW     39.88
2020-Apr-06 09:09:30 1010.500 - - - - SSW     39.88
2020-Apr-06 10:09:29 1010.900 - - - - SSW     39.88
2020-Apr-06 11:09:18 1011.200 - - - - SSW     39.88
2020-Apr-06 12:08:52 1011.400 - - - - SSW     39.88
2020-Apr-06 13:08:59 1011.100 - - - - SSW     39.88
2020-Apr-06 14:09:20 1011.000 - - - - SSW     39.88
2020-Apr-06 15:09:09 1010.900 - - - - SSW     39.88
2020-Apr-06 16:08:42 1010.800 - - - - SSW     39.88
2020-Apr-06 17:09:04 1010.600 - - - - SSW     39.88
2020-Apr-06 18:08:50 1011.000 - - - - SSW     39.88
2020-Apr-06 19:09:03 1011.400 - - - - SSW     39.88
2020-Apr-06 20:09:09 1011.600 - - - - SSW     39.88
2020-Apr-06 21:09:05 1012.100 - - - - SSW     39.88
2020-Apr-06 22:09:12 1012.800 - - - - SSW     39.88
2020-Apr-06 23:09:07 1013.100 - - - - SSW     39.88

Temperatura Máxima:    Temperatura Mínima:
Presión Máxima:1013.100 Hpa    Presión Mínima:1009.200 Hpa


Volver